TimeFJST,TemperatureF,Dew PointF,Humidity,Sea Level PressureIn,VisibilityMPH,Wind Direction,Wind SpeedMPH,Gust SpeedMPH,PrecipitationIn,Events,Conditions,WindDirDegrees,DateUTC
12:00 AM,77.0,75.2,94,29.92,18.6,Calm,Calm,-,N/A,,Scattered Clouds,0,2012-11-17 11:00:00
1:00 AM,78,74,85,29.92,12,South,5.8,,,,Partly Cloudy,170,2012-11-17 12:00:00
1:00 AM,77.0,75.2,94,29.92,24.9,South,5.8,-,N/A,,Scattered Clouds,170,2012-11-17 12:00:00
2:00 AM,77.0,75.2,94,29.89,24.9,Calm,Calm,-,N/A,,Scattered Clouds,0,2012-11-17 13:00:00
3:00 AM,77.0,75.2,94,29.89,24.9,Calm,Calm,-,N/A,,Scattered Clouds,0,2012-11-17 14:00:00
4:00 AM,76,75,94,29.88,12,Calm,Calm,,,,Partly Cloudy,,2012-11-17 15:00:00
4:00 AM,75.2,75.2,100,29.86,24.9,Calm,Calm,-,N/A,,Scattered Clouds,0,2012-11-17 15:00:00
5:00 AM,75.2,73.4,94,29.86,24.9,Calm,Calm,-,N/A,,Scattered Clouds,0,2012-11-17 16:00:00
6:00 AM,77.0,73.4,89,29.86,28.0,Calm,Calm,-,N/A,,Scattered Clouds,0,2012-11-17 17:00:00
7:00 AM,76,73,88,29.89,31,Calm,Calm,,,,Partly Cloudy,,2012-11-17 18:00:00
7:00 AM,77.0,73.4,89,29.89,31.1,Calm,Calm,-,N/A,,Scattered Clouds,0,2012-11-17 18:00:00
8:00 AM,78.8,73.4,83,29.89,31.1,SE,4.6,-,N/A,,Mostly Cloudy,130,2012-11-17 19:00:00
9:00 AM,82.4,75.2,79,29.89,31.1,SE,3.5,-,N/A,,Scattered Clouds,140,2012-11-17 20:00:00
10:00 AM,85,78,76,29.91,31,SE,6.9,,,,Partly Cloudy,140,2012-11-17 21:00:00
10:00 AM,86.0,78.8,79,29.89,31.1,SE,6.9,-,N/A,,Scattered Clouds,140,2012-11-17 21:00:00
11:00 AM,84.2,75.2,74,29.89,31.1,West,5.8,-,N/A,,Scattered Clouds,280,2012-11-17 22:00:00
12:00 PM,84.2,73.4,70,29.89,31.1,WNW,9.2,-,N/A,,Mostly Cloudy,300,2012-11-17 23:00:00
1:00 PM,86,76,64,29.89,31,West,11.5,,,,Partly Cloudy,270,2012-11-18 00:00:00
1:00 PM,86.0,75.2,70,29.89,31.1,West,11.5,-,N/A,,Scattered Clouds,270,2012-11-18 00:00:00
2:00 PM,84.2,77.0,79,29.86,31.1,WNW,15.0,-,N/A,,Scattered Clouds,290,2012-11-18 01:00:00
2:50 PM,77.0,75.2,94,29.86,5.0,East,21.9,-,N/A,Rain-Thunderstorm,Thunderstorms and Rain,100,2012-11-18 01:50:00
3:00 PM,77.0,75.2,94,29.86,3.1,East,21.9,-,N/A,Rain-Thunderstorm,Thunderstorms and Rain,100,2012-11-18 02:00:00
3:30 PM,77.0,75.2,94,29.86,5.0,SSE,9.2,-,N/A,Rain-Thunderstorm,Light Thunderstorms and Rain,150,2012-11-18 02:30:00
4:00 PM,77,75,90,29.87,12,SE,11.5,,,Thunderstorm,Light Thunderstorm,140,2012-11-18 03:00:00
4:00 PM,77.0,75.2,94,29.86,12.4,SE,11.5,-,N/A,,Mostly Cloudy,140,2012-11-18 03:00:00
5:00 PM,78.8,77.0,94,29.86,24.9,ENE,5.8,-,N/A,,Mostly Cloudy,70,2012-11-18 04:00:00
6:00 PM,78.8,73.4,83,29.86,28.0,Calm,Calm,-,N/A,,Mostly Cloudy,0,2012-11-18 05:00:00
7:00 PM,79,74,80,29.91,12,ENE,4.6,,,,Partly Cloudy,60,2012-11-18 06:00:00
7:00 PM,78.8,73.4,83,29.89,28.0,ENE,4.6,-,N/A,,Mostly Cloudy,60,2012-11-18 06:00:00
8:00 PM,78.8,73.4,83,29.89,28.0,ENE,3.5,-,N/A,,Mostly Cloudy,70,2012-11-18 07:00:00
9:00 PM,77.0,73.4,89,29.92,28.0,ESE,5.8,-,N/A,,Scattered Clouds,120,2012-11-18 08:00:00
10:00 PM,77,73,85,29.94,12,NE,5.8,,,,Partly Cloudy,50,2012-11-18 09:00:00
10:00 PM,77.0,73.4,89,29.92,28.0,NE,5.8,-,N/A,,Mostly Cloudy,50,2012-11-18 09:00:00
11:00 PM,77.0,73.4,89,29.95,28.0,Calm,Calm,-,N/A,,Mostly Cloudy,0,2012-11-18 10:00:00